Weather History for Orlando International, FL

Change the Weather History Date:

Wednesday, February 1, 2012

  Actual Average Record
Temperature  
Mean Temperature 67 °F 61 °F  
Max Temperature 80 °F 72 °F 87 °F (1985)
Min Temperature 53 °F 50 °F 28 °F (1936)
Degree Days  
Heating Degree Days 0 5  
Month to date heating degree days 0 5  
Since 1 July heating degree days 245 389  
Cooling Degree Days 2 2  
Month to date cooling degree days 2 2  
Year to date cooling degree days 21 47  
Growing Degree Days 16 (Base 50)    
Moisture  
Dew Point 55 °F    
Average Humidity 66    
Maximum Humidity 93    
Minimum Humidity 39    
Precipitation  
Precipitation 0.00 in 0.08 in 0.70 in (1920)
Month to date precipitation 0.00 0.08  
Year to date precipitation 0.13 2.43  
Sea Level Pressure  
Sea Level Pressure 30.23 in    
Wind  
Wind Speed 5 mph (ESE)    
Max Wind Speed 15 mph    
Max Gust Speed 18 mph    
Visibility 10 miles    
Events      
T = Trace of Precipitation, MM = Missing Value Source: NWS Daily Summary

Daily Weather History Graph

Daily Weather History Graph

Search for Another Location

Airport:

Trip Planner

Search our weather history database for the weather conditions in past years. The results will help you decide how hot, cold, wet, or windy it might be!

Date:

Astronomy

Feb. 01, 2012 Rise Set
Actual Time 7:13 AM EST 6:04 PM EST
Civil Twilight 6:48 AM EST 6:29 PM EST
Nautical Twilight 6:20 AM EST 6:57 PM EST
Astronomical Twilight 5:52 AM EST 7:25 PM EST
Moon 12:39 PM EST (2/1) 1:51 AM EST (2/1)
Length of Visible Light 11h 40m
Length of Day
10h 51m
Waxing Gibbous, 64% of the Moon is Illuminated
Feb 1
Waxing Gibbous
Feb 7
Full
Feb 14
Last Quarter
Feb 21
New
Feb 29
First Quarter

Hourly Weather History & Observations

Time (EST) Temp. Dew Point Humidity Pressure Visibility Wind Dir Wind Speed Gust Speed Precip Events Conditions
12:53 AM 57.9 °F 53.1 °F 84% 30.29 in 10.0 mi East 3.5 mph - N/A   Partly Cloudy
1:53 AM 57.0 °F 53.1 °F 87% 30.28 in 10.0 mi Calm Calm - N/A   Partly Cloudy
2:53 AM 55.9 °F 53.1 °F 90% 30.27 in 10.0 mi Calm Calm - N/A   Partly Cloudy
3:53 AM 55.9 °F 53.1 °F 90% 30.27 in 7.0 mi North 4.6 mph - N/A   Scattered Clouds
4:53 AM 54.0 °F 52.0 °F 93% 30.26 in 6.0 mi Calm Calm - N/A   Scattered Clouds
5:53 AM 54.0 °F 52.0 °F 93% 30.27 in 9.0 mi Calm Calm - N/A   Mostly Cloudy
6:53 AM 55.9 °F 53.1 °F 90% 30.28 in 8.0 mi Calm Calm - N/A   Mostly Cloudy
7:53 AM 60.1 °F 55.9 °F 86% 30.28 in 7.0 mi Calm Calm - N/A   Mostly Cloudy
8:53 AM 64.9 °F 57.9 °F 78% 30.29 in 10.0 mi East 3.5 mph - N/A   Scattered Clouds
9:53 AM 71.1 °F 55.9 °F 59% 30.28 in 10.0 mi East 6.9 mph - N/A   Scattered Clouds
10:53 AM 77.0 °F 55.0 °F 47% 30.27 in 10.0 mi SE 11.5 mph - N/A   Scattered Clouds
11:53 AM 78.1 °F 53.1 °F 42% 30.24 in 10.0 mi SSE 9.2 mph - N/A   Scattered Clouds
12:53 PM 77.0 °F 54.0 °F 45% 30.22 in 10.0 mi ENE 6.9 mph - N/A   Scattered Clouds
1:53 PM 79.0 °F 53.1 °F 40% 30.19 in 10.0 mi SSE 6.9 mph - N/A   Mostly Cloudy
2:53 PM 79.0 °F 53.1 °F 40% 30.16 in 10.0 mi Variable 4.6 mph - N/A   Mostly Cloudy
3:53 PM 79.0 °F 52.0 °F 39% 30.15 in 10.0 mi ESE 4.6 mph - N/A   Mostly Cloudy
4:53 PM 77.0 °F 55.9 °F 48% 30.16 in 10.0 mi East 12.7 mph - N/A   Mostly Cloudy
5:53 PM 72.0 °F 55.9 °F 57% 30.16 in 10.0 mi East 8.1 mph - N/A   Mostly Cloudy
6:53 PM 68.0 °F 55.9 °F 65% 30.17 in 10.0 mi East 6.9 mph - N/A   Mostly Cloudy
7:53 PM 66.0 °F 57.0 °F 73% 30.18 in 10.0 mi ESE 4.6 mph - N/A   Mostly Cloudy
8:53 PM 64.9 °F 57.0 °F 75% 30.18 in 10.0 mi ESE 5.8 mph - N/A   Mostly Cloudy
9:53 PM 64.0 °F 57.0 °F 78% 30.19 in 10.0 mi ESE 4.6 mph - N/A   Partly Cloudy
10:53 PM 62.1 °F 55.9 °F 80% 30.19 in 10.0 mi Calm Calm - N/A   Partly Cloudy
11:53 PM 62.1 °F 57.0 °F 84% 30.20 in 10.0 mi West 3.5 mph - N/A   Clear